Location: Palomar Mountain Lodge
(33.3110°N, 116.8495°W)
Time: 00:10:31
(UTC-07:00)

BREEZE-M R/B - Pass Details

Date: 14 June 2018
Orbit: 310 x 4582 km, 49.7° (Epoch: 13 August)

Event Time Altitude Azimuth Distance (km) Brightness Sun altitude
Rises 21:59:38 0° 316° (NW) 2,438 7.7 -20.6°
Reaches altitude 10° 22:02:04 10° 327° (NNW) 1,332 6.0 -21.0°
Enters shadow 22:03:54 28° 1° (N) 639 3.6 -21.2°
